User: anonymous   Login
Location: Skalnate Pleso
(49.1889°N, 20.2450°E)
Time: 01:18:45
(UTC+01:00)
Language:

Iridium 18 - Orbit

View from above orbital plane
View from above orbital plane
View from above satellite
View from above satellite

Ground track
Ground track

The orbit data is extracted from the following two-line orbital elements,

1 24872U 97034D   14329.50392361  .00000589  00000-0  20319-3 0   669
2 24872 086.3985 052.7321 0002325 113.4217 246.7223 14.34216417909945
Epoch (UTC): 25 November 2014 12:05:39
Eccentricity: 0.0002325
inclination: 86.3985°
perigee height: 776 km
apogee height: 779 km
right ascension of ascending node: 52.7321°
argument of perigee: 113.4217°
revolutions per day: 14.34216417
mean anomaly at epoch: 246.7223°
orbit number at epoch: 90994

The dashed part of the orbit path shows where the satellite is in the earth's shadow,  

DLR